COSMOS 2514 (751)

Last updated on July 6, 2021, 3:40 p.m. UTC

1 41330U 16008A   21186.68830808 -.00000051  00000-0  00000-0 0  9992
2 41330  65.5719  14.4150 0008412 200.7479 156.4647  2.13102869 42095
UTC
Height (km)
Latitude
Longitude
Inclination
Orbital Period
UTC large
Height (km)
Speed (km/s)
/
Latitude / Longitude
Inclination (degrees)
Orbital Period (minutes)
Azimuth
Elevation
Range (km)
Doppler Factor
iOS Compass Heading
iOS Angle